TimeEST,TemperatureF,Dew PointF,Humidity,Sea Level PressureIn,VisibilityMPH,Wind Direction,Wind SpeedMPH,Gust SpeedMPH,PrecipitationIn,Events,Conditions,WindDirDegrees,DateUTC
12:15 AM,57.4,44.6,62,30.04,10.0,SSW,16.1,25.3,N/A,,Overcast,210,2012-12-02 05:15:00
12:35 AM,57.2,44.8,63,30.03,10.0,SSW,12.7,17.3,N/A,,Overcast,210,2012-12-02 05:35:00
12:55 AM,54.9,46.8,74,30.03,7.0,SSW,11.5,16.1,N/A,Rain,Light Rain,200,2012-12-02 05:55:00
1:15 AM,54.9,46.9,75,30.02,10.0,South,11.5,21.9,N/A,Rain,Light Rain,190,2012-12-02 06:15:00
1:35 AM,55.2,46.8,73,30.02,10.0,SSW,11.5,18.4,N/A,Rain,Heavy Rain,210,2012-12-02 06:35:00
1:55 AM,53.8,47.7,80,30.01,7.0,South,10.4,18.4,N/A,Rain,Light Rain,190,2012-12-02 06:55:00
2:15 AM,54.5,47.7,78,30.01,10.0,SSW,11.5,21.9,N/A,Rain,Light Rain,200,2012-12-02 07:15:00
2:35 AM,54.7,47.5,77,30.00,10.0,SSW,11.5,20.7,N/A,,Overcast,200,2012-12-02 07:35:00
2:55 AM,55.4,47.5,75,30.00,10.0,South,12.7,-,N/A,,Overcast,190,2012-12-02 07:55:00
3:15 AM,54.7,47.8,78,30.00,10.0,South,9.2,19.6,N/A,,Overcast,190,2012-12-02 08:15:00
3:35 AM,54.3,48.4,80,29.99,10.0,South,9.2,-,N/A,,Overcast,190,2012-12-02 08:35:00
3:55 AM,54.3,48.4,80,29.98,10.0,SSW,8.1,-,N/A,,Overcast,200,2012-12-02 08:55:00
4:15 AM,54.3,48.2,80,29.98,10.0,South,6.9,-,N/A,,Overcast,190,2012-12-02 09:15:00
4:35 AM,54.5,47.7,78,29.96,10.0,South,6.9,-,N/A,,Mostly Cloudy,190,2012-12-02 09:35:00
4:55 AM,55.2,47.3,75,29.96,10.0,SSW,10.4,-,N/A,,Mostly Cloudy,200,2012-12-02 09:55:00
5:15 AM,55.4,47.3,74,29.95,10.0,SSW,10.4,16.1,N/A,,Scattered Clouds,200,2012-12-02 10:15:00
5:35 AM,55.4,47.3,74,29.95,10.0,SSW,10.4,16.1,N/A,,Scattered Clouds,200,2012-12-02 10:35:00
5:55 AM,55.4,47.5,75,29.95,10.0,SSW,9.2,-,N/A,,Mostly Cloudy,200,2012-12-02 10:55:00
6:15 AM,55.8,47.5,74,29.95,10.0,SSW,10.4,18.4,N/A,,Overcast,200,2012-12-02 11:15:00
6:35 AM,55.8,47.7,74,29.95,10.0,South,10.4,16.1,N/A,,Overcast,190,2012-12-02 11:35:00
6:55 AM,55.8,47.8,75,29.95,10.0,SSW,9.2,20.7,N/A,,Overcast,210,2012-12-02 11:55:00
7:15 AM,56.3,47.8,73,29.95,10.0,SSW,10.4,16.1,N/A,,Overcast,210,2012-12-02 12:15:00
7:35 AM,56.7,48.2,73,29.95,10.0,SW,11.5,17.3,N/A,,Overcast,220,2012-12-02 12:35:00
7:55 AM,57.0,48.6,73,29.95,10.0,SSW,9.2,18.4,N/A,Rain,Rain,210,2012-12-02 12:55:00
8:15 AM,56.3,48.9,76,29.96,10.0,SW,12.7,19.6,N/A,,Overcast,220,2012-12-02 13:15:00
8:35 AM,56.3,48.7,76,29.96,10.0,SSW,12.7,20.7,N/A,,Overcast,210,2012-12-02 13:35:00
8:55 AM,55.9,49.1,78,29.97,10.0,SW,8.1,20.7,N/A,,Overcast,220,2012-12-02 13:55:00
9:15 AM,54.9,50.0,84,29.97,5.0,SSW,11.5,-,N/A,Rain,Rain,210,2012-12-02 14:15:00
9:35 AM,54.5,50.9,88,29.97,4.0,SW,9.2,-,N/A,Rain,Rain,220,2012-12-02 14:35:00
9:55 AM,54.1,50.9,89,29.97,4.0,SW,8.1,-,N/A,Rain,Light Rain,220,2012-12-02 14:55:00
10:15 AM,54.3,51.1,89,29.98,4.0,SSW,10.4,-,N/A,Rain,Light Rain,210,2012-12-02 15:15:00
10:35 AM,54.5,51.4,89,29.98,4.0,SW,10.4,-,N/A,Rain,Rain,220,2012-12-02 15:35:00
11:15 AM,55.0,52.0,89,29.98,3.0,WSW,10.4,16.1,N/A,,Overcast,240,2012-12-02 16:15:00
11:35 AM,54.9,52.0,90,29.97,2.5,SW,9.2,16.1,N/A,Rain,Light Rain,230,2012-12-02 16:35:00
11:55 AM,54.9,52.2,91,29.97,2.5,SW,8.1,18.4,N/A,,Overcast,230,2012-12-02 16:55:00
12:15 PM,55.0,52.3,91,29.97,2.0,SW,11.5,16.1,N/A,,Overcast,230,2012-12-02 17:15:00
12:35 PM,55.0,52.7,92,29.96,2.5,WSW,10.4,-,N/A,,Overcast,240,2012-12-02 17:35:00
12:55 PM,55.4,52.7,91,29.96,2.5,WSW,9.2,16.1,N/A,,Overcast,240,2012-12-02 17:55:00
1:15 PM,55.8,53.1,91,29.97,4.0,WSW,9.2,-,N/A,,Overcast,240,2012-12-02 18:15:00
1:35 PM,56.3,53.4,90,29.96,4.0,WSW,9.2,16.1,N/A,,Overcast,240,2012-12-02 18:35:00
1:55 PM,57.0,53.6,88,29.96,5.0,WSW,9.2,16.1,N/A,,Overcast,240,2012-12-02 18:55:00
2:15 PM,57.0,53.4,88,29.96,5.0,WSW,10.4,-,N/A,,Overcast,250,2012-12-02 19:15:00
2:35 PM,56.8,53.2,88,29.96,5.0,WSW,9.2,-,N/A,,Overcast,240,2012-12-02 19:35:00
2:55 PM,56.8,53.1,87,29.98,5.0,West,5.8,-,N/A,,Overcast,260,2012-12-02 19:55:00
3:15 PM,57.0,53.1,87,29.98,5.0,WSW,8.1,-,N/A,,Overcast,240,2012-12-02 20:15:00
3:35 PM,57.2,53.1,86,29.98,5.0,WSW,9.2,-,N/A,,Overcast,250,2012-12-02 20:35:00
3:55 PM,57.4,52.9,85,29.99,7.0,WSW,5.8,-,N/A,,Overcast,240,2012-12-02 20:55:00
4:15 PM,57.4,52.9,85,29.99,7.0,WSW,6.9,-,N/A,,Overcast,250,2012-12-02 21:15:00
4:35 PM,57.6,53.1,85,30.00,5.0,WSW,5.8,-,N/A,,Haze,250,2012-12-02 21:35:00
4:55 PM,57.2,52.9,85,30.01,7.0,WSW,5.8,-,N/A,,Overcast,250,2012-12-02 21:55:00
5:15 PM,57.2,52.9,85,30.02,7.0,WSW,5.8,-,N/A,,Overcast,250,2012-12-02 22:15:00
5:35 PM,57.4,53.1,85,30.03,7.0,WSW,4.6,-,N/A,,Overcast,240,2012-12-02 22:35:00
5:55 PM,57.2,52.9,85,30.04,7.0,Calm,Calm,-,N/A,,Overcast,0,2012-12-02 22:55:00
6:15 PM,57.2,52.9,85,30.04,7.0,SW,4.6,-,N/A,,Overcast,230,2012-12-02 23:15:00
6:35 PM,57.2,52.9,85,30.04,7.0,SW,4.6,-,N/A,,Overcast,220,2012-12-02 23:35:00
6:55 PM,57.2,52.9,85,30.06,7.0,WSW,3.5,-,N/A,,Overcast,240,2012-12-02 23:55:00
7:15 PM,57.2,52.9,85,30.07,5.0,WSW,4.6,-,N/A,,Overcast,240,2012-12-03 00:15:00
7:35 PM,57.2,52.9,85,30.08,7.0,WSW,3.5,-,N/A,,Overcast,250,2012-12-03 00:35:00
7:55 PM,56.8,52.7,86,30.08,7.0,SW,3.5,-,N/A,,Overcast,230,2012-12-03 00:55:00
8:15 PM,57.2,52.9,85,30.09,7.0,Calm,Calm,-,N/A,,Overcast,0,2012-12-03 01:15:00
8:55 PM,56.5,52.7,87,30.10,5.0,Calm,Calm,-,N/A,,Overcast,0,2012-12-03 01:55:00
9:15 PM,55.0,52.2,90,30.10,4.0,Calm,Calm,-,N/A,,Overcast,0,2012-12-03 02:15:00
9:35 PM,54.5,51.8,91,30.10,4.0,Calm,Calm,-,N/A,,Overcast,0,2012-12-03 02:35:00
9:55 PM,54.0,51.4,91,30.10,3.0,Calm,Calm,-,N/A,,Overcast,0,2012-12-03 02:55:00
10:15 PM,54.1,51.6,91,30.10,2.5,Calm,Calm,-,N/A,,Overcast,0,2012-12-03 03:15:00
10:35 PM,53.4,50.9,91,30.11,1.8,Calm,Calm,-,N/A,,Overcast,0,2012-12-03 03:35:00
10:55 PM,52.9,50.9,93,30.11,2.0,Calm,Calm,-,N/A,,Overcast,0,2012-12-03 03:55:00
11:15 PM,54.0,51.8,92,30.11,2.5,NW,4.6,-,N/A,,Overcast,320,2012-12-03 04:15:00
11:35 PM,55.0,52.7,92,30.11,3.0,Calm,Calm,-,N/A,,Overcast,0,2012-12-03 04:35:00
11:55 PM,53.8,51.4,92,30.12,2.5,Calm,Calm,-,N/A,,Overcast,0,2012-12-03 04:55:00